Home   Weather   Regensburg   Past weeks

Flag for Germany Past Weather in Regensburg, Bavaria, Germany — Yesterday and Last 2 Weeks

Now
3 °F

Clear.


Feels Like: 3 °F
Forecast: 6 / 17 °F
Wind: No wind

Location: Hohenfels

Current Time: Jan 20, 2017 at 7:01:46 am

Latest Report: Jan 20, 2017 at 5:58 am


Visibility: N/A

Pressure: 30.63 "Hg

Humidity: 92%

Dew Point: 1 °F

Location of RegensburgLocation

Past Weather in Regensburg — Graph

°F

Regensburg Temperature Yesterday

Maximum temperature yesterday: 30 °F (at 3:58 pm)
Minimum temperature yesterday: 2 °F (at 6:58 am)
Average temperature yesterday: 14 °F

High & Low Weather Summary for the Past Weeks

 TemperatureHumidityPressure
High39 °F (Jan 12, 2:58 pm)100% (Jan 11, 6:03 pm)30.84 "Hg (Jan 11, 6:03 pm)
Low-6 °F (Jan 7, 2:58 am)55% (Jan 19, 3:58 pm)29.32 "Hg (Jan 13, 3:28 am)
Average25 °F84%30.17 "Hg
* Reported Jan 5 5:58 am — Jan 20 5:58 am, Regensburg, Weather by CustomWeather, © 2017

Note: Actual official high and low records may vary slightly from our data, if they occured in-between our weather recording intervals... More about our weather records

Advertising

Regensburg Weather History for the Previous 24 Hours

Scroll right to see more
 ConditionsComfort  
Time TempWeatherWind HumidityBarometerVisibility
5:58 am
Fri, Jan 20
3 °FClear.No wind92%30.63 "HgN/A
4:58 am5 °FClear.No wind86%30.63 "HgN/A
3:58 am5 °FClear.No wind86%30.63 "HgN/A
2:58 am6 °FClear.No wind87%30.63 "HgN/A
1:58 am6 °FClear.No wind87%30.63 "HgN/A
12:58 am7 °FClear.No wind92%30.65 "HgN/A
11:58 pm
Thu, Jan 19
10 °FClear.No wind85%30.65 "HgN/A
10:58 pm12 °FClear.5 mph85%30.66 "HgN/A
9:58 pm12 °FClear.5 mph85%30.66 "HgN/A
8:58 pm17 °FClear.3 mph77%30.68 "HgN/A
7:58 pm19 °FClear.3 mph74%30.66 "HgN/A
6:58 pm23 °FClear.No wind63%30.66 "HgN/A
5:58 pm25 °FClear.No wind59%30.65 "HgN/A
4:58 pm28 °FClear.3 mph55%30.64 "HgN/A
3:58 pm30 °FSunny.No wind55%30.63 "HgN/A
2:58 pm29 °FSunny.5 mph57%30.63 "HgN/A
1:58 pm28 °FSunny.6 mph60%30.63 "HgN/A
12:58 pm26 °FSunny.5 mph62%30.66 "HgN/A
11:58 am22 °FSunny.7 mph69%30.68 "HgN/A
10:58 am18 °FSunny.No wind79%30.69 "HgN/A
9:58 am10 °FSunny.No wind86%30.71 "HgN/A
8:58 am4 °FSunny.No wind85%30.70 "HgN/A
7:58 am2 °FClear.No wind85%30.70 "HgN/A
Weather by CustomWeather, © 2017

See weather overviewHow to use our weather pages